Wind_Speed
14 14 13 15 15 15 14 14 14 12 14 17 18 18 21 21 20 16 12 10 10 9 11 9 8 7 9 10 10 10 10 9 10 11 10 11 11 11 11 11 11 11 12
14 12 15 16 15 17 18 16 16 14 17 21 19 19 21 25 24 18 13 12 12 11 11 12 10 9 9 10 10 9 9 8 8 9 10 9 10 10 10 10 9 9 10
19 23 23 19 16 17 19 19 19 18 19 23 21 24 22 27 25 19 16 14 13 11 10 10 11 13 11 10 10 10 10 9 8 9 9 9 9 9 8 8 8 8 8
21 21 21 20 19 21 23 22 21 21 22 23 21 24 27 27 25 23 17 15 11 9 11 11 10 10 10 11 11 10 9 9 8 6 6 7 7 6 7 7 6 6 6
19 19 21 21 22 22 25 22 21 21 21 20 25 30 32 25 28 28 18 11 10 11 13 13 12 12 12 11 11 11 10 10 9 8 7 7 7 7 6 6 6 5 5
14 17 18 21 16 12 16 22 22 27 21 41 39 30 28 26 23 27 20 10 10 11 13 13 14 13 12 11 11 11 10 10 9 10 9 9 10 10 9 8 6 6 6
13 13 16 17 13 12 18 14 11 20 37 32 23 28 27 24 20 17 17 14 12 13 13 13 13 13 13 12 11 11 11 10 8 8 7 8 9 9 9 10 10 10 10
14 13 12 12 11 11 11 12 22 10 23 30 31 28 28 19 15 17 13 11 12 12 13 13 12 12 12 11 10 11 10 10 10 10 9 9 9 9 9 8 8 8 10
14 13 10 8 5 10 11 18 23 13 16 28 31 27 19 16 13 13 11 12 13 13 13 12 11 12 12 11 11 11 11 11 11 11 10 10 10 10 10 11 11 10 9
13 13 12 10 8 11 12 7 12 15 24 30 23 18 12 14 15 16 11 14 13 13 12 11 10 11 10 11 12 12 12 12 12 12 12 12 12 13 13 13 12 12 12
13 14 13 12 13 10 13 11 8 10 8 22 20 16 9 15 17 14 15 14 13 11 11 11 12 12 12 12 12 14 13 13 13 13 12 13 12 14 13 12 12 13 13
13 14 15 14 14 15 14 13 8 8 3 12 7 5 13 15 12 13 14 14 12 12 12 12 13 12 13 14 14 13 13 13 14 13 14 14 15 15 14 13 14 15 14
16 17 17 16 15 15 12 18 16 13 9 8 10 10 8 12 13 13 13 13 13 13 13 13 13 14 14 15 14 13 14 14 15 16 16 17 15 14 13 14 15 15 15
18 18 19 19 19 19 19 16 17 13 15 13 12 13 13 12 12 13 13 14 14 14 14 14 14 15 15 16 15 15 15 16 17 17 16 17 16 15 15 15 15 16 16
21 21 22 22 24 24 23 23 19 19 19 18 18 17 16 16 15 15 15 16 16 16 16 16 16 16 17 18 17 17 17 18 19 17 17 18 18 17 16 17 17 18 18
22 22 24 25 26 29 28 29 24 23 23 23 22 21 20 20 19 19 17 17 18 18 19 18 17 18 18 19 19 19 19 19 19 19 18 19 19 19 19 18 18 19 19
25 26 26 27 28 27 31 33 32 28 27 27 26 25 24 23 22 21 19 19 19 20 21 19 19 19 20 20 21 20 20 20 20 20 20 20 20 20 20 21 20 21 21
30 29 28 28 30 30 30 33 34 30 29 28 28 29 28 26 25 23 23 22 22 22 22 21 22 21 21 21 21 22 22 23 22 21 21 20 21 21 22 22 22 23 23
29 31 31 30 31 31 33 32 33 34 35 33 31 30 30 29 27 26 24 23 24 25 24 24 23 23 22 22 23 24 25 24 24 23 22 22 23 23 24 24 24 25 24
30 32 33 33 33 34 35 35 35 35 35 35 35 34 33 30 32 32 28 28 27 27 26 26 25 25 25 25 26 26 26 26 26 25 25 25 25 26 26 26 26 26 27
30 31 33 34 34 36 36 36 37 36 35 35 35 35 33 34 35 34 33 32 30 27 26 27 26 26 26 26 27 27 28 28 28 28 28 28 28 28 29 29 28 28 29
38 36 34 34 35 36 36 37 38 38 38 37 36 36 35 33 34 34 34 33 32 30 29 29 30 29 29 29 29 29 30 30 29 30 30 30 30 31 31 31 32 31 31
38 42 43 42 41 40 39 40 40 42 41 40 38 37 36 35 34 34 34 33 33 32 30 30 30 30 29 30 29 30 31 33 29 30 31 32 32 33 34 35 35 35 35
30 33 39 44 44 44 44 44 43 41 40 38 39 38 37 38 35 35 34 33 34 33 34 32 31 31 31 31 31 31 32 32 32 32 31 33 34 36 36 37 38 38 38
23 26 30 35 39 44 45 46 45 43 41 42 42 40 37 37 36 35 35 34 34 33 31 32 31 32 33 33 34 33 34 34 33 34 36 35 34 36 37 39 39 40 40
12 14 18 22 28 34 39 46 47 45 45 44 43 41 38 37 36 36 37 34 36 33 32 35 37 33 33 33 33 33 34 34 34 35 36 38 37 38 37 40 41 41 42
Wind_Direction
292 280 295 307 296 275 250 248 254 256 236 229 244 245 241 219 209 199 189 182 179 174 155 176 173 152 158 150 150 144 137 129 121 118 117 116 115 122 123 123 120 122 129
296 275 294 302 296 280 259 247 248 251 237 242 243 238 234 212 201 187 181 182 185 178 173 178 180 181 166 157 156 159 148 141 137 131 124 124 126 125 120 118 117 121 125
287 287 293 294 285 270 260 252 249 246 241 238 244 245 230 210 193 178 170 155 145 167 177 180 181 184 181 173 162 156 161 155 158 151 143 137 133 129 133 136 133 127 125
283 282 283 289 279 267 257 247 246 240 239 237 238 224 226 218 216 172 167 175 183 178 175 183 179 180 181 190 184 179 175 177 177 175 155 146 135 146 142 137 145 144 145
277 275 285 287 284 264 249 250 253 253 243 218 207 222 210 185 168 166 180 192 196 185 187 182 175 178 176 175 181 188 188 192 191 196 192 176 171 169 167 157 154 155 160
277 276 287 296 283 256 251 249 270 243 227 188 187 197 171 178 191 179 185 186 201 186 187 187 186 182 179 177 176 178 181 189 195 203 206 200 200 195 196 205 202 197 194
269 276 296 297 284 263 233 260 133 136 201 187 204 178 161 159 167 186 203 206 197 190 184 183 180 178 184 188 188 193 191 191 196 197 189 196 208 213 220 231 234 229 223
268 274 292 290 275 278 245 239 215 144 155 192 189 193 175 161 190 194 194 192 191 180 178 177 175 175 179 181 188 194 192 194 205 208 205 209 213 213 216 223 230 240 245
263 263 277 277 271 285 286 221 219 212 165 170 176 179 160 175 176 177 185 190 186 182 183 180 180 186 187 189 195 202 203 201 206 212 212 210 215 222 224 228 235 244 252
257 256 264 258 279 260 239 176 173 189 206 195 148 140 153 169 182 174 198 195 196 194 193 197 202 209 210 211 213 219 221 222 223 227 226 226 226 229 231 232 235 236 239
259 255 254 254 257 191 205 166 136 118 166 181 138 131 163 198 192 193 203 205 207 206 211 216 220 223 229 230 227 228 229 233 232 233 237 240 240 242 244 250 252 252 253
251 249 250 249 246 217 192 150 188 163 160 184 181 179 179 200 209 202 205 209 212 219 223 228 234 236 237 235 232 231 230 235 240 241 241 245 246 248 249 248 250 252 254
246 239 242 243 240 216 204 188 181 188 215 235 196 207 211 209 211 213 215 223 224 226 231 236 239 243 242 240 236 235 240 242 244 247 247 247 246 248 248 246 249 252 252
251 239 238 235 232 215 211 198 201 226 220 225 225 223 217 224 221 221 226 231 233 235 236 238 243 243 241 241 239 238 240 247 253 253 253 253 251 246 243 245 247 248 251
250 243 237 234 227 229 228 209 220 236 234 230 230 234 231 235 229 234 231 236 237 241 240 241 242 242 242 240 240 241 243 249 254 254 253 253 253 253 251 247 245 247 250
249 242 236 235 231 227 231 228 237 242 236 236 236 234 238 239 241 240 241 242 243 242 246 246 246 246 244 241 240 241 246 252 255 256 254 254 254 254 253 253 254 255 257
243 239 236 235 236 236 233 234 243 243 237 236 239 241 239 243 244 246 248 250 248 246 248 247 250 249 248 246 243 243 246 249 251 255 253 253 256 257 258 258 257 259 259
245 243 239 234 236 237 237 238 240 241 241 241 241 242 245 247 246 247 250 252 252 249 248 248 248 247 246 247 249 249 251 253 253 253 256 258 259 259 261 262 262 261 261
243 245 244 241 237 236 240 240 238 238 237 239 243 246 245 247 249 249 250 252 252 252 251 250 250 251 251 250 248 248 249 252 255 256 259 261 262 263 263 264 265 266 266
242 237 237 237 237 239 238 239 241 240 240 239 240 242 243 242 248 249 249 250 249 249 248 248 249 249 249 249 250 251 252 254 256 260 261 263 265 266 265 265 266 267 268
241 236 234 235 237 238 240 240 241 245 245 244 245 248 249 244 245 249 251 249 250 253 254 254 253 253 253 252 252 253 253 254 256 259 261 262 263 268 269 270 270 271 270
236 237 238 238 239 239 238 239 240 241 242 244 245 245 251 252 251 252 252 248 248 251 253 253 254 255 254 254 254 255 255 258 259 261 262 265 266 268 270 271 272 273 274
239 238 241 244 244 243 241 241 239 239 240 241 243 246 249 254 253 253 256 256 253 250 253 254 256 258 259 258 259 259 259 258 259 259 263 267 270 271 271 272 272 273 274
245 243 243 244 243 242 240 241 242 243 242 244 245 245 246 254 256 253 254 255 254 253 252 254 257 258 258 258 259 260 261 262 263 263 263 264 265 267 268 270 271 272 274
245 245 244 244 245 243 243 244 243 242 242 242 242 243 246 249 253 254 254 257 260 257 250 254 254 255 256 256 257 258 259 260 262 266 268 265 267 270 270 271 272 273 273
234 242 247 248 247 246 246 247 246 244 242 242 242 243 243 247 251 252 255 262 258 265 259 250 251 255 258 259 259 259 260 262 263 264 264 267 269 269 271 273 275 277 278
Height
3102 3102 3101 3102 3102 3103 3103 3104 3105 3106 3106 3106 3107 3107 3110 3112 3115 3117 3117 3118 3120 3121 3122 3123 3125 3126 3127 3128 3130 3131 3132 3133 3134 3136 3137 3138 3139 3140 3141 3141 3143 3144 3145
3101 3100 3100 3100 3100 3100 3100 3101 3102 3103 3104 3104 3105 3106 3108 3108 3113 3114 3116 3118 3119 3120 3122 3123 3125 3125 3127 3128 3130 3132 3133 3135 3136 3136 3138 3139 3140 3142 3142 3144 3145 3146 3147
3099 3098 3097 3096 3097 3097 3096 3097 3098 3100 3102 3101 3103 3104 3106 3105 3109 3110 3114 3117 3119 3120 3121 3122 3124 3125 3127 3129 3130 3132 3134 3135 3136 3137 3138 3140 3141 3142 3143 3145 3146 3147 3148
3095 3094 3092 3093 3094 3094 3094 3093 3095 3098 3099 3099 3100 3101 3103 3104 3107 3105 3112 3115 3117 3119 3120 3122 3124 3125 3127 3128 3130 3132 3133 3134 3136 3137 3139 3140 3142 3143 3145 3146 3147 3148 3149
3092 3090 3089 3089 3089 3088 3090 3091 3093 3095 3096 3098 3095 3098 3098 3101 3102 3105 3110 3114 3116 3117 3119 3121 3123 3126 3127 3128 3129 3131 3132 3134 3135 3136 3139 3140 3141 3143 3145 3146 3147 3148 3149
3089 3087 3086 3084 3084 3085 3087 3089 3088 3088 3092 3079 3091 3096 3095 3097 3101 3105 3109 3111 3115 3116 3118 3120 3122 3124 3126 3128 3129 3131 3132 3133 3134 3135 3137 3139 3140 3142 3144 3145 3147 3148 3149
3086 3085 3083 3081 3080 3083 3083 3087 3078 3080 3080 3085 3090 3093 3095 3099 3103 3108 3112 3113 3114 3116 3118 3120 3122 3124 3126 3128 3129 3131 3132 3133 3133 3134 3136 3137 3139 3140 3142 3143 3144 3145 3147
3082 3082 3081 3080 3079 3080 3082 3083 3086 3086 3078 3083 3088 3093 3095 3098 3104 3108 3111 3112 3114 3116 3117 3120 3122 3123 3125 3127 3129 3131 3131 3132 3134 3134 3136 3137 3138 3139 3140 3141 3142 3143 3145
3080 3080 3079 3079 3079 3079 3082 3083 3084 3086 3086 3087 3089 3094 3096 3101 3104 3106 3109 3112 3113 3115 3117 3119 3121 3123 3125 3126 3128 3130 3131 3131 3133 3134 3135 3137 3138 3139 3139 3140 3141 3142 3144
3077 3077 3078 3078 3080 3079 3079 3081 3083 3084 3085 3090 3088 3092 3097 3101 3104 3106 3108 3110 3113 3115 3116 3118 3119 3122 3123 3125 3127 3128 3129 3130 3131 3132 3134 3135 3136 3137 3138 3139 3140 3141 3141
3075 3074 3076 3077 3079 3080 3081 3081 3083 3085 3086 3089 3090 3093 3096 3101 3103 3105 3108 3110 3111 3113 3115 3117 3118 3120 3121 3123 3125 3126 3127 3128 3128 3130 3131 3132 3133 3134 3135 3137 3138 3139 3139
3072 3072 3073 3075 3077 3079 3081 3083 3086 3087 3089 3090 3093 3092 3096 3101 3101 3103 3106 3108 3109 3111 3113 3115 3117 3118 3120 3121 3123 3124 3124 3125 3127 3128 3128 3129 3130 3131 3133 3133 3134 3134 3136
3068 3069 3070 3072 3076 3078 3081 3083 3084 3085 3088 3090 3092 3094 3096 3099 3101 3103 3104 3106 3107 3109 3110 3112 3113 3115 3117 3118 3120 3120 3122 3123 3123 3125 3125 3126 3127 3129 3129 3130 3130 3131 3132
3065 3067 3068 3069 3072 3075 3077 3079 3082 3083 3086 3088 3090 3093 3095 3097 3099 3100 3101 3103 3105 3106 3108 3109 3111 3113 3114 3116 3117 3118 3119 3121 3121 3122 3123 3123 3123 3124 3125 3126 3126 3127 3128
3062 3063 3065 3066 3069 3073 3075 3077 3080 3082 3083 3086 3088 3090 3091 3094 3095 3097 3098 3100 3101 3103 3105 3106 3108 3109 3112 3113 3114 3115 3116 3117 3117 3119 3119 3120 3121 3121 3122 3122 3123 3123 3124
3057 3059 3060 3062 3064 3067 3070 3074 3075 3078 3079 3082 3084 3086 3088 3090 3092 3094 3094 3096 3098 3099 3102 3103 3104 3106 3108 3109 3111 3112 3113 3114 3114 3114 3116 3116 3118 3118 3119 3119 3120 3120 3121
3051 3053 3055 3057 3059 3062 3065 3068 3070 3074 3076 3078 3080 3082 3084 3086 3088 3089 3090 3093 3094 3095 3098 3099 3101 3102 3104 3106 3107 3108 3109 3110 3110 3110 3112 3113 3113 3114 3114 3115 3115 3115 3116
3045 3046 3049 3052 3055 3057 3058 3062 3065 3067 3070 3072 3075 3077 3079 3081 3084 3084 3087 3088 3090 3092 3094 3095 3097 3098 3100 3101 3102 3103 3104 3106 3107 3107 3107 3108 3109 3109 3110 3110 3110 3110 3111
3038 3041 3043 3045 3049 3052 3054 3056 3059 3062 3064 3067 3070 3072 3074 3076 3078 3080 3082 3084 3086 3088 3089 3091 3092 3093 3094 3096 3097 3099 3101 3101 3101 3102 3103 3103 3104 3105 3105 3105 3105 3105 3105
3030 3032 3036 3038 3041 3043 3047 3050 3052 3054 3058 3061 3063 3066 3069 3072 3073 3075 3077 3079 3081 3083 3084 3086 3088 3089 3091 3092 3093 3094 3095 3096 3096 3097 3098 3099 3099 3099 3100 3099 3099 3099 3099
3023 3026 3028 3032 3035 3038 3041 3043 3045 3048 3052 3055 3059 3061 3063 3065 3067 3069 3072 3073 3075 3076 3078 3080 3081 3083 3084 3085 3087 3087 3088 3089 3090 3091 3092 3093 3094 3094 3094 3094 3093 3093 3093
3016 3017 3021 3024 3026 3029 3032 3036 3039 3042 3044 3048 3050 3053 3057 3060 3061 3063 3065 3067 3069 3072 3073 3074 3075 3077 3078 3080 3081 3081 3082 3084 3085 3086 3086 3087 3087 3087 3086 3087 3087 3087 3086
3008 3010 3011 3013 3018 3021 3024 3025 3028 3031 3036 3040 3044 3047 3050 3052 3054 3056 3059 3061 3063 3065 3066 3068 3069 3072 3073 3075 3075 3076 3076 3075 3079 3078 3079 3080 3079 3079 3078 3080 3079 3078 3077
3001 3003 3004 3005 3007 3011 3014 3017 3021 3025 3028 3033 3036 3040 3043 3045 3047 3049 3050 3053 3055 3057 3059 3061 3062 3064 3065 3067 3068 3069 3070 3070 3070 3072 3071 3072 3072 3072 3071 3071 3071 3070 3069
2994 2995 2996 2999 3001 3003 3005 3007 3011 3016 3020 3022 3026 3029 3033 3037 3039 3041 3044 3045 3046 3047 3049 3052 3054 3056 3057 3058 3060 3061 3062 3062 3063 3062 3062 3064 3065 3065 3063 3063 3062 3061 3061
2988 2989 2990 2992 2993 2995 2997 2999 3002 3005 3009 3013 3017 3021 3024 3028 3031 3034 3035 3036 3038 3038 3041 3043 3044 3047 3048 3049 3051 3051 3054 3054 3054 3054 3055 3055 3056 3056 3056 3054 3053 3052 3051